www.pogodaiklimat.ru
Время
и дата
07:40 30.12
07:56 30.12
08:02 30.12
08:56 30.12
09:33 30.12
09:35 30.12
09:56 30.12
10:56 30.12
11:08 30.12
11:24 30.12
11:56 30.12
12:04 30.12
12:18 30.12
12:56 30.12
13:56 30.12
14:56 30.12
15:56 30.12
16:56 30.12
17:56 30.12
18:56 30.12
19:56 30.12
20:56 30.12
21:56 30.12
22:56 30.12
23:56 30.12
00:56 31.12
01:56 31.12
02:56 31.12
03:03 31.12
03:56 31.12
04:34 31.12
04:49 31.12
04:56 31.12
05:11 31.12
05:56 31.12
06:11 31.12
06:20 31.12
06:56 31.12
07:56 31.12
08:56 31.12
09:56 31.12
10:56 31.12
11:56 31.12
12:56 31.12
13:56 31.12
14:56 31.12
15:56 31.12
16:56 31.12
Ветер
(напр.,м/с)
Видим. Явления Облачность Т
(С)
Тd
(С)
f
(%)
Тe
(С)
Тes
(С)
Комфортность P
(гПа)
Po
(гПа)
Тmin
(С)
Tmax
(С)
R
(мм)
R24
(мм)
S
(см)
СВ 1 0 м туман ?/? +14.4 +12.8 90 +14 +14 1003.1
штиль 0 400 м туман ?/? +15.0 +13.3 90 +15 +15 1012.4 1003.1
С 1 200 м туман ?/? +15.0 +13.3 90 +15 +15 1003.4
В 1 200 м туман 10/8 30 м
[Ac]
+15.6 +13.9 90 +15 +15 1012.9 1003.8
штиль 0 400 м туман ?/? +15.6 +14.4 93 +15 +15 1004.1
штиль 0 400 м туман ?/? +16.1 +14.4 90 +16 +16 1004.4
СЗ 1 400 м туман ?/? +16.1 +14.4 90 +16 +16 1013.9 1004.8
СЗ 1 800 м туман ?/? +16.7 +15.6 93 +17 +17 1014.0 1004.8
штиль 0 2 км дымка 10/10 60 м +16.7 +15.0 90 +17 +17 1004.8
штиль 0 5 км дымка 10/10 60 м +17.2 +15.0 87 +17 +17 1004.4
С 1 11 км 10/10 90 м +18.3 +15.0 81 +19 +19 1013.2 1004.1 +14.4 +18.3
штиль 0 14 км 8/8 150 м +19.4 +15.6 79 +21 +23 комфорт 1004.1
нст 1 16 км 8/5 150 м
[Ac Ci]
+20.6 +15.6 73 +24 +27 комфорт 1003.8
штиль 0 16 км 5/0 4200 м
[Ac Ci]
+22.2 +15.6 66 +26 +32 душно 1012.1 1003.1
нст 1 16 км 2/0 8400 м
[Ci]
+24.4 +15.0 56 +27 +34 жарко 1011.0 1001.7
ЮВ 1 16 км 5/0 8400 м
[Ci]
+25.0 +15.6 56 +28 +33 жарко 1010.9 1001.7
Ю 1 16 км 8/0 3600 м
[Ac Ci]
+23.9 +15.0 57 +27 +28 жарко 1010.5 1001.4
В 1 16 км 8/0 3600 м
[Ac Ci]
+22.2 +15.6 66 +26 +27 душно 1010.3 1001.1
штиль 0 16 км 8/0 3300 м
[Ac Ci]
+20.0 +15.6 76 +22 +22 комфорт 1010.4 1001.4 +18.9 +25.0
штиль 0 16 км 8/0 4500 м
[Ac Ci]
+19.4 +16.1 81 +21 +21 комфорт 1010.4 1001.4
штиль 0 16 км 8/0 4500 м
[Ac Ci]
+18.9 +15.6 81 +20 +20 1010.6 1001.4
Ю 1 16 км 8/0 8400 м
[Ci]
+18.9 +15.6 81 +21 +21 комфорт 1010.5 1001.4
штиль 0 16 км 5/0 8400 м
[Ci]
+18.9 +15.0 78 +20 +20 1010.5 1001.4
штиль 0 14 км 2/0 8400 м
[Ci]
+17.8 +14.4 80 +18 +18 1010.3 1001.1
Ю 1 11 км 8/8 1050 м +16.7 +14.4 86 +17 +17 1010.1 1001.1 +16.7 +20.6
Ю 1 13 км 8/8 1020 м +17.8 +15.0 84 +18 +18 1009.8 1000.7
Ю 1 6 км дымка 10/10 870 м +18.9 +16.1 84 +21 +21 комфорт 1009.5 1000.4
Ю 1 6 км дымка 10/10 450 м +19.4 +17.2 87 +22 +22 комфорт 1009.7 1000.7
ЮЗ 1 6 км дымка 10/10 390 м +20.0 +17.2 84 +23 +23 комфорт 1000.7
Ю 1 8 км дымка 10/10 420 м +20.6 +17.8 84 +25 +25 комфорт 1009.4 1000.4
Ю 2 8 км дымка 8/8 420 м +20.0 +17.8 87 +23 +23 комфорт 999.7
Ю 2 8 км дымка 2/2 750 м +20.0 +17.2 84 +23 +23 комфорт 999.4
Ю 1 8 км дымка 2/2 510 м +20.0 +17.2 84 +23 +23 комфорт 1008.6 999.4
Ю 1 8 км дымка 8/8 570 м +20.6 +17.8 84 +25 +25 комфорт 999.7
Ю 1 6 км дымка 8/8 540 м +20.0 +17.8 87 +24 +24 комфорт 1008.9 999.7 +16.1 +20.6
Ю 1 6 км дымка 5/5 570 м +19.4 +16.7 84 +22 +22 комфорт 1000.4
Ю 1 6 км дымка 8/8 420 м +20.0 +17.2 84 +23 +23 комфорт 1000.4
Ю 1 6 км дымка 8/8 420 м +19.4 +17.2 87 +22 +22 комфорт 1009.5 1000.4
Ю 1 6 км дымка 10/10 480 м +20.6 +18.3 87 +25 +25 комфорт 1009.9 1000.7
Ю 1 11 км 10/10 480 м +21.7 +18.3 81 +26 +26 душно 1010.0 1000.7
Ю 2 11 км 10/10 540 м +22.8 +18.3 76 +28 +28 душно 1010.4 1001.1
Ю 2 13 км 10/10 570 м +23.3 +17.8 71 +29 +29 душно 1010.4 1001.4
Ю 2 16 км 10/10 630 м +25.0 +17.8 64 +29 +29 душно 1009.0 1000.1 +18.9 +25.0
Ю 4
{5}
16 км 5/5 750 м +26.1 +17.8 60 +30 +31 душно 1007.4 998.4
Ю 3 16 км 8/5 870 м
[Ac]
+26.7 +17.2 56 +31 +32 душно 1006.8 997.7
Ю 3 16 км 8/5 960 м
[Ac Ci]
+26.7 +17.2 56 +31 +31 душно 1006.6 997.7
Ю 3 16 км 8/8 1110 м
[Ac Ci]
+26.7 +17.2 56 +31 +31 душно 1006.6 997.7
Ю 2 13 км 8/2 1200 м
[Ac]
+25.6 +17.2 60 +30 +30 душно 1006.5 997.4
Местоположение метеостанции Shreveport Regional Airport: широта 32.4469 долгота -93.8242 высота над уровнем моря 78 м.
В архиве по умолчанию представлена погода в Шривпорте за последние 1-2 суток. Обновление информации о фактической погоде в базе происходит ежечасно! Архивные данные за месяц целиком и за предыдущие месяцы Вы можете получить, выбрав интересующий диапазон дат из раскрывающегося списка и нажав кнопку "Ввод!".
Внимание! Архив погоды МЕТАР в базе сайта по станциям, не включенным в климатический монитор, хранится не более 60 дней. Нет смысла пытаться выбрать более раннюю дату.
*Определитесь, кто Вы:
Внимание! Время в таблицах - местное (без учета летнего времени). Для получения всемирного времени необходимо вычесть поправку, которая равна -6 ч.
Смотрите также архив погоды в соседних городах и на ближайших метеорологических станциях:
Партнеры нашего сайта:      
Пояснения к столбцам:
  • Ветер - указаны скорость ветра в м/с - средняя за 10 мин, порывы в срок и между сроками (в фигурных скобках) и направление, откуда дует ветер: С - северный,
  • СВ - северо-восточный, В - восточный, ЮВ - юго-восточный, Ю - южный, ЮЗ - юго-западный, З - западный, СЗ - северо-западный.
  • Видимость - горизонтальная дальность видимости в метрах или километрах. При видимости от 1 до 10 км при отсутствии осадков обычно наблюдается дымка, при ухудшении видимости до 1 км и менее - туман. В сухую погоду видимость может ухудшаться дымом, пылью или мглою.
  • Явления - указаны атмосферные явления, наблюдавшиеся в срок или в последний час перед сроком; фигурными скобками обозначены явления, наблюдавшиеся между сроками (за 1-3 часа до срока); квадратными скобками обозначены град или гололедные отложения с указанием их диаметра в мм.
  • Облачность - указаны через наклонную черту общая и нижняя облачность в баллах и высота нижней границы облаков в метрах; квадратными скобками обозначены формы облаков: Ci - перистые, Cs - перисто-слоистые, Cc - перисто-кучевые, Ac - высококучевые, As - высокослоистые, Sc - слоисто-кучевые, Ns - слоисто-дождевые, Cu - кучевые, Cb - кучево-дождевые. Подробнее классификацию облаков см. в Атласе облаков (PDF).
  • T - Температура воздуха - температура, измеренная на высоте 2 м над землей.
  • Td - Температура точки росы - температура, при понижении до которой содержащийся в воздухе водяной пар достигнет насыщения.
  • f - Относительная влажность воздуха - влажноcть воздуха, измеренная на высоте 2 м над землей.
  • Te - Эффективная температура - температура, которую ощущает одетый по сезону человек в тени. Характеристика душности погоды. При расчете учитывается влияние влажности воздуха и скорости ветра на теплоощущения человека.
  • Tes - Эффективная температура на солнце - температура, которую ощущает человек, с поправкой на солнечный нагрев. Характеристика знойности погоды. Зависит от высоты солнца над горизонтом, облачности и скорости ветра. Ночью, в пасмурную погоду, а также при ветре 12 м/с и более поправка равна нулю.
  • P - Атмосферное давление - приведенное к уровню моря атмосферное давление.
  • Po - Атмосферное давление - измеренное на уровне метеостанции атмосферное давление.
  • Tmin - Минимальная температура - минимум температуры воздуха на высоте 2 м над землей.
  • Tmax - Максимальная температура - максимум температуры воздуха на высоте 2 м над землей.
  • R - Количество осадков - Количество выпавших осадков за период времени, мм. При наведении курсора мыши на число - период времени, за который выпало указанное количество осадков.
  • R24 - Количество осадков - Количество выпавших осадков за 24 часа, мм.
  • S - Снежный покров - Высота снежного покрова, см. При наведении курсора мыши на число - состояние снежного покрова и степень покрытия местности в баллах.